Temp
63 63 63 62 62 62 62 62 62 62 62 62 62 61 61 61 61 62 62 62 61 62 62 63 64 65 84 96 101 103 84 85 99 103 106 107 104 102 97 98 99 95 96 97 97 96 96
62 62 63 62 62 62 62 62 62 62 61 61 61 61 61 61 61 61 61 61 61 61 62 64 65 64 90 93 109 110 108 102 107 107 109 108 105 107 101 99 93 99 99 96 97 96 96
62 63 62 62 62 62 61 61 61 61 61 61 60 60 60 60 60 60 60 60 60 61 63 65 66 82 97 99 109 111 109 107 110 111 107 110 110 106 105 97 102 100 93 95 95 95 92
62 62 62 62 62 61 61 61 61 61 60 60 60 60 60 60 60 60 59 59 60 63 66 68 68 91 95 108 113 107 111 109 112 112 111 111 111 107 105 105 99 94 94 83 93 94 93
62 62 62 61 61 61 60 60 60 60 60 60 60 60 60 60 59 59 58 59 61 65 70 70 85 96 96 92 102 110 111 106 107 109 110 109 109 105 102 95 91 92 69 84 87 95 92
62 62 61 61 61 60 60 60 60 60 60 60 60 59 59 59 58 58 58 58 69 68 75 91 96 92 101 99 107 109 112 111 105 105 102 102 102 97 99 94 61 79 86 87 82 92 93
62 61 61 61 61 60 60 60 60 60 60 60 59 59 59 58 58 57 67 94 89 87 94 96 97 98 98 106 107 104 109 106 107 102 93 100 94 90 95 97 92 92 89 86 90 95 91
62 61 61 61 60 60 60 60 59 59 59 59 59 59 58 58 57 57 68 94 91 92 86 101 100 100 101 104 97 103 109 98 98 91 98 96 89 98 100 97 93 92 89 89 92 94 91
62 61 60 60 60 60 60 59 59 59 59 59 59 58 58 57 56 69 94 93 99 98 87 96 100 98 99 102 97 99 104 101 96 92 94 91 95 101 96 93 90 92 91 87 87 91 94
61 60 60 60 60 60 59 59 59 59 59 58 58 58 57 55 66 96 94 96 100 98 81 88 92 97 100 100 94 107 107 102 98 91 95 94 100 94 93 91 94 88 96 92 89 87 75
61 60 60 60 60 59 59 59 58 58 58 58 58 58 56 53 79 94 94 99 100 95 69 91 93 103 103 96 99 98 108 103 93 93 95 90 93 93 90 92 96 91 95 93 91 89 89
61 61 60 60 60 59 59 58 58 58 58 58 58 57 55 70 83 95 98 98 95 78 70 86 93 91 92 96 97 100 99 104 103 95 96 94 102 98 96 98 98 98 93 92 93 90 80
61 61 60 60 60 59 58 58 58 58 58 57 57 55 58 80 92 96 97 93 78 74 91 85 88 93 91 90 93 92 90 90 87 82 83 90 92 97 98 92 97 94 89 78 76 77 77
61 60 60 60 59 59 58 58 58 57 57 57 55 54 68 85 92 94 93 84 70 84 86 93 91 93 88 93 92 92 89 87 93 92 88 82 80 92 97 92 90 90 90 80 68 74 76
61 60 60 59 59 59 58 58 57 57 57 56 54 93 91 96 94 93 86 76 80 86 90 87 91 85 87 92 92 91 89 89 93 95 84 84 84 97 98 98 96 90 85 95 86 86 80
60 60 60 60 59 59 58 58 57 57 57 56 72 88 96 96 97 91 81 71 87 90 89 89 82 88 83 87 87 89 88 94 93 98 99 91 80 94 95 98 97 94 99 84 86 71 68
60 60 60 60 59 59 59 58 57 57 56 56 75 85 93 99 96 85 76 84 88 93 90 87 85 86 88 88 89 88 88 93 97 96 98 95 90 87 92 89 87 89 87 89 91 87 75
60 60 60 60 59 59 59 58 57 56 54 66 82 78 96 98 80 85 81 87 63 87 92 89 88 87 87 91 88 88 88 93 100 99 90 95 92 83 86 95 97 95 91 91 81 78 85
60 60 60 60 59 59 59 58 57 55 54 65 75 82 99 93 75 81 86 84 86 85 87 87 86 90 93 88 84 90 92 99 98 96 92 96 87 79 83 90 93 89 93 94 93 92 82
60 60 60 59 59 59 59 58 56 55 55 64 75 76 87 88 87 80 79 78 79 88 84 88 87 90 87 85 91 88 91 95 97 97 76 89 91 86 80 84 91 84 88 92 92 84 84
60 60 59 60 59 59 59 58 57 56 55 65 80 78 75 76 80 78 79 78 76 77 86 86 82 84 84 81 85 86 92 94 95 78 90 93 85 89 90 92 90 89 87 89 87 89 84
60 60 60 60 60 59 59 58 57 56 55 73 69 69 75 73 77 75 70 75 76 78 80 78 80 85 87 82 85 83 90 92 89 93 91 96 84 88 84 90 89 86 91 91 90 90 90
59 60 60 60 60 59 59 59 58 56 57 73 75 76 71 66 75 75 76 76 76 77 79 82 81 78 78 82 84 86 90 91 93 91 91 91 88 85 78 88 87 80 88 90 91 93 92
59 60 59 59 59 59 59 59 59 58 56 70 72 69 66 65 73 73 74 73 73 74 72 79 80 76 83 89 88 91 91 91 93 94 99 89 88 87 80 84 69 89 98 96 92 94 96
58 58 59 59 59 59 59 59 59 59 58 66 69 67 65 62 70 71 70 70 73 74 72 74 79 84 89 83 77 76 80 83 86 91 94 97 89 82 76 76 83 88 92 91 89 88 97
58 58 58 59 59 59 59 59 59 59 58 63 66 66 63 60 68 67 65 67 66 70 73 76 84 89 85 77 76 67 69 76 76 82 94 95 95 84 80 72 69 86 95 100 97 81 94
59 58 58 58 58 59 59 59 60 59 58 62 63 66 60 52 65 67 64 63 69 69 69 74 75 75 84 74 71 71 73 83 75 75 78 82 82 79 80 73 83 86 94 98 78 80 91
58 58 58 58 58 58 59 59 59 59 59 61 63 65 57 51 62 66 67 62 66 66 63 73 71 75 73 70 72 75 75 81 80 83 80 78 76 78 80 75 69 95 94 85 87 91 91
57 57 57 57 58 58 58 59 59 59 58 59 60 68 64 50 60 67 67 70 68 70 67 69 68 68 73 70 75 76 73 81 79 74 89 79 85 81 83 84 89 96 92 95 97 91 90
MSLP
1023.03 1022.64 1022.19 1021.71 1021.24 1020.79 1020.32 1019.77 1019.20 1018.70 1018.17 1017.54 1016.79 1015.96 1015.30 1014.67 1013.80 1013.13 1012.68 1012.08 1011.31 1010.68 1009.99 1009.65 1009.10 1008.76 1007.76 1005.20 1002.61 1003.10 1003.97 1004.41 1004.36 1003.86 1001.99 1000.49 999.39 998.58 998.31 999.21 999.32 1000.02 1000.87 1001.81 1002.66 1003.18 1003.57
1023.25 1022.76 1022.29 1021.95 1021.47 1021.02 1020.51 1019.86 1019.33 1018.70 1018.10 1017.46 1016.76 1015.90 1015.17 1014.54 1013.70 1012.82 1012.24 1011.83 1011.04 1010.32 1009.62 1009.21 1008.89 1008.80 1007.01 1003.41 1002.37 1002.35 1003.02 1003.81 1003.03 1002.50 1001.19 1000.63 999.52 999.04 998.84 999.23 999.87 999.98 1000.65 1001.72 1002.42 1002.92 1003.44
1023.31 1022.83 1022.55 1022.11 1021.61 1021.16 1020.54 1019.95 1019.35 1018.74 1018.06 1017.31 1016.54 1015.72 1014.96 1014.34 1013.57 1012.56 1011.90 1011.21 1010.62 1009.89 1009.19 1008.71 1008.55 1007.94 1004.80 1002.19 1002.28 1002.17 1002.51 1002.72 1002.37 1001.67 1000.68 1000.51 1000.28 999.51 998.61 999.30 1000.04 1000.23 1000.70 1001.45 1002.11 1002.75 1003.30
1023.39 1023.03 1022.66 1022.23 1021.75 1021.22 1020.69 1020.08 1019.44 1018.77 1018.01 1017.22 1016.43 1015.60 1014.69 1014.01 1013.31 1012.34 1011.49 1010.79 1010.11 1009.47 1008.75 1008.28 1008.23 1006.94 1003.17 1002.20 1002.08 1002.35 1002.00 1001.91 1001.99 1001.68 1001.21 1000.95 1000.60 999.49 998.52 999.16 999.76 999.27 999.73 1000.12 1001.55 1002.34 1002.83
1023.51 1023.14 1022.76 1022.31 1021.82 1021.29 1020.69 1020.05 1019.41 1018.70 1017.88 1017.12 1016.24 1015.34 1014.47 1013.57 1012.82 1012.03 1011.16 1010.25 1009.47 1008.97 1008.52 1008.18 1007.40 1005.19 1001.89 1002.93 1002.15 1001.59 1001.56 1001.21 1001.64 1001.60 1001.51 1001.49 1000.57 999.01 999.11 998.67 998.74 999.57 999.88 999.27 1000.64 1001.73 1002.17
1023.65 1023.38 1022.91 1022.35 1021.88 1021.36 1020.74 1020.06 1019.32 1018.59 1017.89 1017.10 1016.23 1015.27 1014.31 1013.31 1012.43 1011.63 1010.51 1009.29 1008.42 1008.47 1008.07 1006.98 1005.60 1004.05 1001.63 1000.68 1000.71 1001.00 1001.25 1000.84 1001.04 1001.06 1001.22 1001.04 999.92 998.81 998.21 997.49 998.96 999.54 998.50 998.54 998.90 1000.49 1001.32
1023.84 1023.44 1022.99 1022.50 1021.97 1021.39 1020.73 1020.01 1019.23 1018.50 1017.75 1016.93 1016.02 1015.06 1014.13 1013.17 1012.23 1011.57 1010.11 1007.69 1008.02 1007.00 1005.28 1003.05 1001.96 1000.91 1000.74 1000.59 1001.33 1001.12 1001.07 1000.91 1000.52 1000.45 1000.02 999.78 998.91 997.71 996.87 997.03 998.60 998.06 997.85 998.13 998.81 999.59 1000.36
1023.96 1023.48 1023.01 1022.50 1021.93 1021.26 1020.51 1019.79 1019.08 1018.29 1017.51 1016.64 1015.72 1014.77 1013.76 1012.76 1011.83 1011.02 1010.53 1006.51 1006.43 1006.26 1003.93 1001.85 1001.30 1000.82 1000.91 1000.83 1000.10 1000.24 1000.78 1000.51 1000.05 999.50 999.30 998.54 998.00 997.25 996.86 997.44 998.14 998.09 997.68 997.49 998.35 999.42 999.95
1024.03 1023.65 1023.14 1022.55 1021.96 1021.31 1020.57 1019.84 1019.05 1018.16 1017.32 1016.39 1015.47 1014.59 1013.55 1012.36 1011.38 1010.17 1007.69 1006.48 1006.39 1005.80 1003.60 1000.10 1000.07 1000.00 1000.25 1000.70 999.60 999.18 1000.08 999.68 999.18 998.98 998.28 997.58 997.47 997.30 997.38 998.04 998.21 997.77 997.10 998.02 997.81 998.60 998.69
1024.04 1023.59 1023.09 1022.58 1022.01 1021.34 1020.52 1019.77 1018.97 1018.05 1017.06 1016.16 1015.17 1014.22 1013.44 1012.14 1011.16 1007.88 1006.33 1006.57 1006.18 1005.79 1002.55 999.47 999.50 999.17 999.48 999.91 999.20 998.40 999.37 999.16 998.66 998.47 997.94 997.77 997.21 997.36 997.63 997.85 997.83 996.72 997.14 997.60 998.09 997.99 997.53
1024.00 1023.59 1023.13 1022.61 1022.04 1021.32 1020.55 1019.73 1018.81 1017.81 1016.76 1015.84 1014.90 1013.93 1013.12 1012.85 1010.29 1006.92 1006.58 1006.38 1006.09 1005.27 1000.43 998.84 998.82 999.57 998.79 999.06 997.71 998.73 999.02 998.77 998.31 998.19 998.05 997.15 997.27 997.28 997.68 997.52 997.63 997.04 997.79 997.70 997.67 997.43 996.50
1024.03 1023.59 1023.06 1022.51 1021.91 1021.26 1020.58 1019.75 1018.81 1017.75 1016.58 1015.52 1014.46 1013.69 1012.84 1011.64 1009.85 1007.27 1006.87 1006.33 1005.67 1003.33 998.53 997.73 998.20 998.51 998.48 998.28 997.75 998.23 998.72 998.92 998.59 997.98 997.88 997.44 997.18 997.45 997.53 997.59 997.52 997.65 997.52 997.98 997.69 997.01 995.82
1023.89 1023.47 1022.99 1022.45 1021.91 1021.31 1020.54 1019.60 1018.60 1017.59 1016.36 1015.09 1013.93 1013.14 1012.82 1010.37 1007.34 1007.48 1006.87 1005.69 1003.25 1000.00 997.72 996.98 997.04 997.27 997.47 997.43 997.27 998.18 998.34 998.41 997.87 997.66 997.19 997.56 997.24 997.83 998.10 997.52 997.40 998.15 997.74 996.84 996.45 995.66 994.77
1023.89 1023.48 1023.03 1022.54 1021.96 1021.30 1020.56 1019.67 1018.57 1017.40 1016.15 1014.63 1013.18 1012.10 1010.46 1009.30 1008.33 1007.73 1006.49 1004.38 1001.05 998.00 996.83 996.79 996.69 996.48 996.45 996.34 996.67 997.08 997.40 997.21 997.45 996.91 995.97 995.99 996.11 996.66 997.24 997.56 996.91 997.31 997.09 995.95 994.90 994.10 993.98
1023.71 1023.32 1022.89 1022.41 1021.88 1021.24 1020.49 1019.58 1018.48 1017.33 1016.07 1014.46 1012.47 1008.83 1008.15 1007.35 1007.68 1007.58 1005.68 1002.21 999.11 997.55 997.17 997.01 996.55 996.22 995.79 995.73 995.91 996.21 996.38 996.03 996.06 996.51 995.85 994.99 995.05 995.18 996.18 996.94 997.21 996.48 996.27 996.16 994.85 994.52 994.18
1023.57 1023.20 1022.79 1022.30 1021.84 1021.33 1020.64 1019.81 1018.85 1017.38 1015.91 1014.35 1012.54 1008.53 1006.52 1007.28 1007.31 1006.63 1004.67 1001.07 998.71 998.53 998.68 997.94 996.66 996.00 995.13 995.18 995.69 995.30 995.37 995.47 995.13 995.44 995.93 995.21 995.28 995.06 995.88 996.65 996.79 996.39 995.83 995.86 995.48 994.49 994.00
1023.40 1023.05 1022.61 1022.10 1021.66 1021.18 1020.53 1019.71 1018.84 1017.64 1015.91 1013.56 1011.94 1007.28 1006.52 1006.65 1006.62 1005.41 1002.75 1000.17 999.10 998.88 999.31 998.33 997.16 995.85 995.28 994.36 994.90 994.66 994.56 994.71 994.97 995.15 995.96 995.59 995.31 995.17 996.05 995.77 995.86 996.42 996.10 995.68 995.16 994.96 994.32
1023.19 1022.85 1022.47 1022.02 1021.54 1021.06 1020.53 1019.80 1018.98 1018.06 1016.42 1013.35 1010.64 1006.83 1006.30 1006.37 1005.34 1003.53 1001.85 1000.53 1000.59 1000.01 999.53 999.05 998.35 997.29 995.93 994.66 994.36 994.39 994.12 994.23 994.74 994.87 995.44 995.78 995.08 994.62 994.89 995.36 995.87 995.75 995.51 995.70 994.90 994.65 993.81
1023.05 1022.72 1022.37 1021.96 1021.52 1021.07 1020.57 1019.95 1019.21 1018.49 1018.19 1016.35 1011.39 1007.60 1005.86 1005.84 1004.02 1002.22 1001.49 1001.18 1001.04 1000.74 999.76 999.06 998.41 997.65 996.65 995.74 994.81 994.23 993.96 994.11 995.11 995.20 995.37 995.45 995.48 994.52 993.80 994.42 995.33 995.14 994.98 994.79 994.94 994.56 993.89
1022.98 1022.69 1022.32 1021.93 1021.56 1021.19 1020.70 1020.16 1019.37 1018.53 1018.09 1017.23 1011.90 1007.34 1005.31 1005.20 1004.63 1003.93 1002.57 1002.12 1001.43 1000.77 1000.84 999.86 999.18 998.35 997.68 996.84 995.71 994.68 994.16 994.62 995.63 995.75 996.42 996.15 994.88 993.90 992.91 993.06 993.34 994.40 994.79 994.48 994.00 993.53 993.49
1022.87 1022.64 1022.36 1021.94 1021.59 1021.26 1020.81 1020.33 1019.66 1018.65 1017.55 1017.04 1011.68 1008.56 1008.77 1005.45 1004.70 1004.94 1004.49 1003.59 1002.58 1001.59 1000.95 1000.79 1000.10 999.43 998.50 997.31 996.36 995.65 994.80 994.63 995.65 996.34 996.58 996.33 994.76 994.01 993.27 993.03 993.47 993.31 994.15 994.47 994.17 993.76 992.99
1022.77 1022.48 1022.21 1021.92 1021.59 1021.29 1020.85 1020.38 1020.01 1018.85 1017.40 1015.42 1013.13 1011.75 1010.14 1008.58 1007.04 1006.09 1005.01 1004.17 1003.13 1002.66 1002.19 1001.39 1000.53 999.51 998.74 998.18 997.34 996.66 995.67 995.02 994.61 995.57 995.78 995.50 994.66 994.18 993.39 993.39 993.81 993.40 993.24 993.70 993.98 994.04 993.88
1022.66 1022.40 1022.14 1021.86 1021.56 1021.29 1020.98 1020.53 1020.18 1019.62 1018.46 1015.45 1014.54 1013.54 1012.52 1009.47 1007.45 1006.01 1004.87 1004.22 1003.89 1003.87 1003.63 1002.85 1002.02 1001.72 1000.75 1000.25 1000.27 999.45 998.18 996.98 995.56 994.39 994.45 994.51 994.14 993.73 993.57 993.59 993.65 993.36 993.14 992.99 993.02 993.54 993.91
1022.54 1022.26 1022.05 1021.85 1021.59 1021.33 1021.04 1020.70 1020.45 1020.19 1019.72 1017.62 1016.17 1015.50 1013.25 1010.15 1008.22 1006.98 1006.28 1006.24 1005.94 1005.58 1004.91 1003.69 1003.38 1003.16 1002.45 1001.91 1001.35 999.44 998.28 997.10 995.90 994.66 993.31 993.49 993.51 993.58 993.37 993.39 993.26 992.73 992.48 992.82 993.24 993.44 993.59
1022.50 1022.26 1022.01 1021.73 1021.49 1021.27 1021.06 1020.83 1020.55 1020.40 1020.11 1018.65 1017.65 1016.39 1014.38 1011.90 1010.00 1008.69 1008.39 1007.85 1007.38 1006.66 1005.87 1005.08 1004.29 1003.66 1003.19 1002.70 1001.30 999.48 997.73 996.63 995.65 995.11 994.08 993.23 993.33 993.26 993.26 993.40 993.05 992.92 992.77 993.29 993.47 993.89 994.00
1022.37 1022.09 1021.82 1021.54 1021.27 1021.08 1020.92 1020.74 1020.50 1020.40 1020.33 1019.54 1018.16 1017.92 1016.61 1014.35 1010.77 1010.76 1010.26 1009.61 1008.52 1006.90 1005.74 1004.77 1004.05 1003.78 1003.37 1002.78 1001.01 998.88 996.65 995.64 995.31 994.99 994.59 993.78 993.39 993.57 993.38 993.02 992.77 992.38 992.44 993.09 993.87 994.29 994.82
1022.06 1021.83 1021.62 1021.40 1021.14 1020.88 1020.63 1020.41 1020.29 1020.21 1020.18 1019.87 1018.71 1018.45 1017.71 1016.19 1013.41 1012.57 1011.32 1010.74 1010.09 1008.86 1007.21 1005.63 1004.76 1004.59 1003.37 1002.35 1000.52 998.77 996.81 995.56 994.58 994.14 994.17 993.89 993.86 993.25 993.27 993.68 992.81 992.84 993.86 994.14 994.74 995.72 996.18
1021.80 1021.58 1021.33 1021.06 1020.81 1020.54 1020.33 1020.10 1019.92 1019.83 1019.84 1019.73 1018.38 1018.44 1018.27 1017.16 1014.80 1013.97 1013.46 1012.70 1011.60 1010.75 1008.95 1006.63 1006.27 1004.53 1003.69 1002.15 1000.74 999.04 997.12 995.37 994.50 993.83 993.61 993.71 994.17 993.68 993.65 993.39 993.35 993.83 994.42 994.58 995.87 996.39 996.92
1021.54 1021.21 1020.86 1020.62 1020.41 1020.19 1020.03 1019.86 1019.71 1019.58 1019.46 1019.63 1018.42 1017.38 1018.04 1018.18 1015.66 1014.60 1014.19 1013.73 1013.06 1011.92 1011.12 1009.66 1007.90 1007.05 1005.07 1003.64 1001.66 1000.12 998.49 995.99 994.58 993.21 993.34 993.23 993.44 993.63 993.96 993.64 994.38 994.83 995.04 995.62 996.02 996.64 997.40
Wind_Speed
16 16 17 18 18 18 20 21 21 21 21 22 23 23 23 24 25 24 22 22 22 22 21 17 17 14 10 11 5 11 9 9 14 15 16 9 13 5 6 6 7 13 12 14 14 13 12
15 15 17 18 19 19 20 21 21 21 22 23 23 23 23 23 24 24 23 22 22 22 20 16 13 10 10 15 7 6 9 14 15 17 13 9 7 11 4 8 7 7 14 14 12 11 11
15 16 17 18 19 20 21 21 22 22 23 23 23 24 24 23 24 25 24 24 23 20 18 15 9 7 11 8 3 6 9 15 16 13 10 5 7 13 7 9 5 11 14 12 12 11 10
16 17 17 18 19 19 20 21 21 22 22 23 24 25 25 24 23 25 25 24 23 19 15 6 5 10 11 5 5 7 11 14 14 11 11 4 9 11 14 12 11 12 18 14 11 11 9
16 17 18 18 19 19 20 21 21 22 23 24 24 25 26 26 25 24 25 25 22 15 10 6 9 11 10 5 11 13 12 13 12 10 10 6 14 15 6 17 15 14 14 19 14 12 7
16 17 18 19 19 19 19 20 21 22 22 23 24 25 26 26 25 25 27 24 5 9 10 10 10 10 10 9 12 10 13 8 15 12 12 13 12 12 15 16 4 17 16 3 11 16 12
17 17 18 19 19 19 20 21 22 23 23 24 25 25 25 26 26 24 17 6 8 9 13 15 3 11 3 4 6 11 14 13 15 15 17 17 14 15 18 9 21 12 1 3 6 12 13
16 18 18 19 19 20 21 22 23 24 24 25 25 26 26 26 27 24 11 7 8 7 10 14 14 11 0 5 10 16 18 17 17 17 20 16 16 18 6 7 5 8 9 10 9 6 9
15 16 17 18 19 20 21 22 24 25 25 26 26 26 26 27 27 12 7 7 6 8 9 10 12 14 13 12 14 18 19 21 18 19 21 21 18 20 4 9 11 12 15 3 2 8 14
14 15 16 18 19 20 21 23 24 25 26 26 27 27 26 28 10 5 4 3 7 4 9 15 12 10 10 13 15 10 20 20 18 18 22 15 24 6 9 13 13 19 9 3 6 12 6
15 15 16 17 18 20 22 23 24 26 27 27 27 27 25 10 12 5 7 6 8 7 9 10 11 7 11 17 13 13 14 19 19 16 16 17 17 13 15 16 15 15 2 6 6 13 18
13 15 16 18 19 20 21 23 24 26 28 29 29 27 22 6 7 9 7 7 7 10 5 9 9 12 15 19 12 15 15 12 14 15 19 21 13 18 17 17 14 12 6 11 14 13 14
14 15 16 17 18 20 22 23 25 26 29 30 31 25 12 8 5 8 7 8 9 11 6 8 12 16 18 15 14 15 18 19 14 13 15 19 23 14 14 16 11 15 13 12 13 12 13
13 13 14 15 16 19 21 23 25 27 29 32 33 25 7 9 8 8 8 10 11 5 3 4 4 13 17 17 17 15 19 17 20 19 15 14 19 24 15 19 18 20 19 15 13 13 12
13 14 14 14 16 19 21 24 26 27 29 33 34 5 7 3 4 6 9 12 13 7 6 4 11 12 14 14 11 17 17 18 19 19 18 8 15 8 22 16 19 20 19 22 24 19 17
13 13 14 14 13 16 18 21 23 28 30 33 11 10 2 0 3 7 9 17 12 4 4 8 15 15 15 15 15 16 16 17 16 19 17 8 9 14 11 15 18 21 14 16 16 17 15
12 13 14 14 14 15 18 21 22 26 31 35 7 7 7 4 5 8 12 14 8 3 6 10 13 15 15 12 16 16 13 6 15 14 15 18 10 11 9 18 18 13 17 14 18 16 15
11 12 12 13 13 14 17 20 21 23 30 13 8 7 5 4 9 9 13 15 5 12 10 12 7 15 17 17 15 19 15 13 15 13 19 17 12 11 15 15 19 21 20 21 14 17 15
10 10 11 12 13 14 16 18 19 20 16 10 8 8 3 6 9 10 13 9 12 17 11 10 12 12 11 17 11 17 13 7 7 8 8 11 10 12 13 13 8 15 24 19 21 20 19
9 10 12 11 11 13 15 15 18 21 17 9 7 5 5 6 6 13 14 9 16 9 12 15 11 15 9 14 17 13 14 9 9 13 8 7 13 15 10 10 14 19 19 19 18 16 19
8 9 11 11 12 12 15 14 16 21 22 8 4 4 6 5 3 7 11 12 13 14 8 9 11 17 18 16 16 18 14 14 13 9 6 12 17 17 12 8 8 14 17 20 21 19 17
9 10 11 11 11 12 14 13 14 21 27 7 7 6 8 12 14 13 11 13 14 14 16 11 15 18 16 15 17 16 14 19 18 14 14 16 16 15 11 6 7 11 17 19 18 19 16
9 10 10 10 11 10 13 11 12 15 18 5 6 7 7 9 12 10 10 11 7 7 10 16 14 11 9 8 17 19 18 18 19 11 19 17 14 16 12 15 10 12 13 15 11 11 13
10 10 9 11 12 12 13 9 10 11 12 9 5 7 7 11 12 8 11 6 11 12 14 18 12 10 16 17 20 20 20 20 18 19 13 19 15 13 11 15 15 11 14 13 14 13 13
11 11 12 11 11 11 11 10 10 8 9 9 7 7 7 10 12 12 12 12 12 14 16 19 18 16 14 14 15 15 16 20 21 19 20 18 13 11 13 10 10 17 8 8 11 12 15
12 12 12 14 12 10 11 10 10 9 7 9 4 5 6 8 2 9 9 11 12 12 13 14 14 11 10 11 12 19 19 18 22 21 20 22 16 13 11 13 16 13 10 9 1 8 9
12 12 13 13 13 13 12 11 11 10 6 7 5 7 4 6 12 11 9 10 13 11 10 13 7 10 16 12 13 16 18 21 22 25 19 14 17 16 14 10 15 19 8 6 11 6 6
13 13 13 13 13 12 12 12 12 11 8 7 5 4 5 4 14 18 17 16 11 10 11 10 9 11 9 12 14 12 14 17 21 22 24 18 17 15 13 18 16 13 13 10 7 9 5
14 14 13 13 13 13 12 12 12 11 9 8 8 3 5 5 11 17 17 18 18 16 13 13 15 9 6 7 5 7 11 14 18 17 21 20 14 16 15 10 11 3 12 10 6 8 4
Wind_Direction
15 10 5 4 1 357 354 352 350 346 341 340 335 332 332 332 330 327 327 323 318 317 310 306 301 307 285 224 242 103 132 158 194 215 246 259 260 217 107 107 144 120 105 115 127 134 143
12 8 6 3 360 355 351 351 348 343 340 337 332 330 330 330 328 324 324 320 316 314 305 300 294 300 245 253 89 128 162 169 202 224 237 249 320 328 114 141 107 128 121 121 142 147 135
8 9 6 0 358 354 351 348 345 339 337 334 333 330 328 330 326 322 322 319 316 310 300 291 272 253 263 266 61 169 190 190 216 227 245 245 290 251 166 124 135 142 135 142 152 161 153
8 5 3 359 356 351 347 344 340 337 335 333 331 328 327 328 325 321 319 315 311 303 300 303 223 245 273 90 240 212 197 190 212 235 277 297 263 274 258 104 185 207 167 158 149 163 157
6 3 359 355 353 347 343 339 337 335 334 332 330 328 327 325 324 320 316 309 299 284 284 253 236 233 257 140 204 206 199 196 194 212 222 290 253 249 201 204 176 194 295 137 151 183 158
5 360 357 354 350 343 340 337 336 334 332 331 329 326 325 323 322 320 316 293 289 282 222 237 265 264 209 225 159 185 200 221 191 199 205 225 232 224 220 229 71 277 150 162 146 167 193
2 358 355 350 345 341 338 337 335 333 332 331 329 326 324 321 320 320 322 231 207 194 221 261 85 244 142 121 133 206 185 206 202 199 214 203 221 224 215 216 163 229 290 189 117 125 198
358 354 350 347 342 340 338 337 335 332 332 331 329 326 324 321 318 315 281 282 34 344 296 255 245 253 156 304 203 198 181 203 205 207 215 205 232 239 257 64 248 236 234 185 122 157 220
356 350 347 343 341 340 337 336 333 331 331 330 328 326 325 320 318 284 296 35 340 319 259 224 214 224 208 210 237 186 195 207 204 219 218 235 205 242 197 191 245 241 252 172 34 166 222
350 347 346 343 341 339 337 334 331 329 330 330 328 327 327 322 295 344 235 78 311 311 267 153 191 204 181 207 225 233 191 216 228 229 235 217 253 221 208 237 221 251 221 96 242 246 238
343 343 342 340 339 338 336 333 331 331 330 329 327 326 325 320 321 249 34 307 314 245 270 158 126 102 192 207 132 188 194 218 226 223 245 224 234 214 240 232 230 266 240 251 247 263 266
342 341 340 340 340 338 335 333 331 331 329 329 326 327 326 199 220 299 301 290 249 233 244 142 136 183 179 212 192 142 185 237 229 241 230 255 221 232 233 240 248 281 235 246 251 252 266
333 338 338 337 337 336 334 333 332 332 329 328 325 322 302 305 344 335 290 243 233 250 85 156 188 166 194 186 193 178 188 198 207 212 219 218 241 218 249 255 190 236 235 234 219 222 242
323 324 327 331 334 335 335 334 332 332 331 327 325 314 191 271 300 282 255 229 250 300 283 65 242 189 196 184 210 194 192 206 215 221 243 213 208 220 201 234 233 209 238 249 236 243 241
322 320 325 330 336 337 336 336 334 333 332 328 315 221 245 57 326 256 249 226 234 278 20 262 183 228 202 209 221 201 220 210 212 218 245 239 229 205 209 209 237 241 215 249 271 280 283
323 322 324 323 330 334 333 335 335 333 333 327 313 279 213 81 215 240 244 254 286 347 303 253 260 207 230 197 200 213 207 221 236 207 233 251 273 198 186 217 224 244 251 222 251 274 274
325 324 322 326 329 334 333 335 338 338 334 320 254 275 92 231 236 232 241 246 262 162 256 252 252 273 248 221 200 227 230 194 208 174 205 247 240 143 222 206 216 202 245 255 261 220 259
323 322 321 329 328 332 333 335 338 343 336 324 295 275 84 257 241 233 246 266 29 288 210 256 261 285 290 261 188 235 229 213 178 211 193 219 253 224 201 211 218 244 215 233 241 249 263
320 323 327 329 332 336 332 333 337 340 359 318 298 289 146 250 260 242 226 256 266 272 250 244 237 239 253 270 250 237 202 152 158 200 221 215 229 253 237 153 209 232 235 226 236 246 242
328 339 336 333 338 334 333 333 336 332 337 313 281 288 174 223 292 292 301 313 282 197 282 292 274 274 259 251 262 250 239 143 187 231 34 302 247 243 252 233 201 195 231 242 251 234 233
331 339 329 333 335 337 334 334 337 328 326 299 267 32 19 294 146 323 306 291 296 283 227 278 267 247 250 245 241 236 250 179 187 155 222 234 249 259 287 286 297 207 203 226 238 258 273
320 323 328 332 338 342 334 335 342 332 330 247 318 343 352 291 279 267 255 259 270 266 265 276 259 278 224 247 261 312 239 238 189 176 226 221 253 278 291 233 247 257 210 212 220 234 257
318 322 329 332 335 344 343 337 347 342 333 319 18 296 275 291 278 267 265 299 272 346 286 254 297 337 280 321 333 309 303 302 293 252 206 226 234 249 242 240 218 240 222 235 223 215 242
316 329 337 334 334 340 340 331 343 349 346 315 8 303 278 274 270 273 317 313 297 287 287 302 318 289 283 334 307 278 260 265 266 267 254 219 220 248 242 230 218 246 216 207 220 224 244
324 323 320 319 320 327 327 326 325 334 331 306 321 307 299 280 284 290 274 270 291 282 259 259 259 269 293 295 287 256 247 238 238 242 256 258 235 234 249 219 215 235 148 210 228 247 259
311 313 319 322 318 315 313 310 309 312 314 290 298 301 306 300 308 1 310 295 283 280 274 267 266 250 290 272 262 251 230 220 218 223 234 252 244 253 255 239 250 224 186 97 53 242 55
315 315 313 315 318 315 308 306 304 294 285 282 291 305 273 284 284 294 286 337 330 310 286 296 321 299 241 247 243 245 239 239 225 216 213 224 252 241 234 256 250 83 15 157 215 75 56
318 314 307 307 307 307 304 299 295 291 263 261 280 255 255 254 289 289 285 283 278 267 272 346 293 207 268 252 238 243 246 234 232 223 219 203 224 240 249 250 238 143 172 222 88 104 61
313 307 302 297 294 296 298 300 299 301 278 230 267 258 217 236 286 306 285 276 280 290 289 289 300 315 322 292 279 298 276 257 246 220 214 217 215 221 237 247 117 106 78 91 77 105 105